Princeton, MN

6:09 AM CST on February 24, 2017 (GMT -0600)
Princeton Municipal

Weather History for KPNM - December, 2012

Change the Weather History Date:

Sunday, December 30, 2012

  Actual Average Record
Temperature  
Mean Temperature 6 °F -  
Max Temperature 17 °F 20 °F 48 °F (2004)
Min Temperature -5 °F 5 °F -22 °F (1998)
Degree Days  
Heating Degree Days 59    
Moisture  
Dew Point 1 °F    
Average Humidity 81    
Maximum Humidity 92    
Minimum Humidity 68    
Precipitation  
Precipitation 0.00 in - - ()
Sea Level Pressure  
Sea Level Pressure 30.01 in    
Wind  
Wind Speed 2 mph (SE)    
Max Wind Speed 10 mph    
Max Gust Speed -    
Visibility 8 miles    
Events      
Averages and records for this station are not official NWS values.
T = Trace of Precipitation, MM = Missing Value Source: NWS Daily Summary

Daily Weather History Graph

Daily Weather History Graph

Search for Another Location

Airport or City:

Trip Planner

Search our weather history database for the weather conditions in past years. The results will help you decide how hot, cold, wet, or windy it might be!

Date:

Astronomy

Dec. 30, 2012 Rise Set
Actual Time 7:54 AM CST 4:40 PM CST
Civil Twilight 7:20 AM CST 5:14 PM CST
Nautical Twilight 6:42 AM CST 5:51 PM CST
Astronomical Twilight 6:06 AM CST 6:27 PM CST
Moon 7:20 PM CST (12/30) 8:56 AM CST (12/30)
Length of Visible Light 9h 53m
Length of Day
8h 45m
Waning Gibbous, 95% of the Moon is Illuminated
Dec 30
Waning Gibbous
Jan 4
Last Quarter
Jan 11
New
Jan 18
First Quarter
Jan 26
Full

Hourly Weather History & Observations

Time (CST) Temp. Windchill Dew Point Humidity Pressure Visibility Wind Dir Wind Speed Gust Speed Precip Events Conditions
12:12 AM -2.2 °F - -5.8 °F 85% 30.12 in 10.0 mi Calm Calm - N/A   Clear
12:31 AM -2.2 °F - -5.8 °F 85% 30.12 in 7.0 mi Calm Calm - N/A   Clear
12:51 AM -2.2 °F - -7.6 °F 78% 30.13 in 7.0 mi Calm Calm - N/A   Clear
1:12 AM -5.8 °F - -9.4 °F 84% 30.13 in 7.0 mi Calm Calm - N/A   Clear
1:31 AM -5.8 °F - -9.4 °F 84% 30.13 in 7.0 mi Calm Calm - N/A   Clear
1:51 AM -5.8 °F - -9.4 °F 84% 30.13 in 10.0 mi Calm Calm - N/A   Clear
2:11 AM -5.8 °F - -11.2 °F 77% 30.15 in 10.0 mi Calm Calm - N/A   Clear
2:31 AM -5.8 °F - -9.4 °F 84% 30.15 in 10.0 mi Calm Calm - N/A   Clear
2:51 AM -5.8 °F - -9.4 °F 84% 30.14 in 10.0 mi Calm Calm - N/A   Clear
3:11 AM -5.8 °F - -9.4 °F 84% 30.15 in 10.0 mi Calm Calm - N/A   Clear
3:31 AM -5.8 °F - -9.4 °F 84% 30.15 in 10.0 mi Calm Calm - N/A   Clear
3:51 AM -5.8 °F - -9.4 °F 84% 30.15 in 10.0 mi Calm Calm - N/A   Clear
4:11 AM -4.0 °F - -9.4 °F 78% 30.14 in 10.0 mi Calm Calm - N/A   Clear
4:31 AM -5.8 °F - -9.4 °F 84% 30.13 in 10.0 mi Calm Calm - N/A   Clear
4:52 AM -2.2 °F - -7.6 °F 78% 30.14 in 10.0 mi Calm Calm - N/A   Clear
5:11 AM -2.2 °F - -7.6 °F 78% 30.13 in 10.0 mi Calm Calm - N/A   Clear
5:31 AM -2.2 °F - -7.6 °F 78% 30.13 in 10.0 mi Calm Calm - N/A   Clear
5:52 AM -2.2 °F - -7.6 °F 78% 30.13 in 7.0 mi Calm Calm - N/A   Clear
6:11 AM -2.2 °F - -5.8 °F 85% 30.12 in 7.0 mi Calm Calm - N/A   Scattered Clouds
6:31 AM -2.2 °F - -7.6 °F 78% 30.13 in 7.0 mi Calm Calm - N/A   Scattered Clouds
7:11 AM -2.2 °F - -5.8 °F 85% 30.11 in 7.0 mi Calm Calm - N/A   Clear
7:31 AM -2.2 °F - -5.8 °F 85% 30.10 in 7.0 mi Calm Calm - N/A   Clear
7:52 AM -2.2 °F - -7.6 °F 78% 30.11 in 7.0 mi Calm Calm - N/A   Clear
8:11 AM -2.2 °F - -7.6 °F 78% 30.12 in 7.0 mi Calm Calm - N/A   Clear
8:31 AM -2.2 °F - -7.6 °F 78% 30.11 in 7.0 mi Calm Calm - N/A   Clear
8:52 AM -0.4 °F -8.3 °F -5.8 °F 78% 30.11 in 5.0 mi SSE 3.5 mph - N/A   Clear
9:11 AM 1.4 °F - -2.2 °F 85% 30.11 in 5.0 mi Calm Calm - N/A   Clear
9:31 AM 1.4 °F -6.2 °F -0.4 °F 92% 30.10 in 5.0 mi SSE 3.5 mph - N/A   Clear
9:52 AM 5.0 °F -4.1 °F 1.4 °F 85% 30.10 in 7.0 mi SSE 4.6 mph - N/A   Clear
10:11 AM 6.8 °F -2.0 °F 3.2 °F 85% 30.10 in 7.0 mi SE 4.6 mph - N/A   Clear
10:31 AM 8.6 °F 2.0 °F 5.0 °F 85% 30.10 in 7.0 mi SSE 3.5 mph - N/A   Clear
10:52 AM 10.4 °F 2.2 °F 6.8 °F 85% 30.08 in 7.0 mi ESE 4.6 mph - N/A   Clear
11:11 AM 10.4 °F 0.8 °F 6.8 °F 85% 30.06 in 7.0 mi SE 5.8 mph - N/A   Clear
11:31 AM 12.2 °F 4.3 °F 6.8 °F 79% 30.04 in 7.0 mi ESE 4.6 mph - N/A   Clear
11:52 AM 12.2 °F 2.9 °F 6.8 °F 79% 30.03 in 7.0 mi ESE 5.8 mph - N/A   Clear
12:11 PM 12.2 °F 4.3 °F 6.8 °F 79% 30.02 in 7.0 mi SE 4.6 mph - N/A   Clear
12:31 PM 12.2 °F 4.3 °F 6.8 °F 79% 30.00 in 7.0 mi ESE 4.6 mph - N/A   Clear
12:52 PM 15.8 °F 8.6 °F 8.6 °F 73% 29.99 in 10.0 mi SE 4.6 mph - N/A   Clear
1:11 PM 15.8 °F 7.2 °F 8.6 °F 73% 29.98 in 10.0 mi ESE 5.8 mph - N/A   Clear
1:31 PM 15.8 °F 6.1 °F 8.6 °F 73% 29.96 in 10.0 mi ESE 6.9 mph - N/A   Clear
1:51 PM 17.6 °F 8.2 °F 10.4 °F 73% 29.94 in 10.0 mi ESE 6.9 mph - N/A   Clear
2:11 PM 17.6 °F 8.2 °F 10.4 °F 73% 29.93 in 7.0 mi SE 6.9 mph - N/A   Clear
2:31 PM 17.6 °F 8.2 °F 10.4 °F 73% 29.91 in 10.0 mi ESE 6.9 mph - N/A   Clear
2:51 PM 17.6 °F 8.2 °F 10.4 °F 73% 29.90 in 10.0 mi ESE 6.9 mph - N/A   Clear
3:11 PM 17.6 °F 9.3 °F 10.4 °F 73% 29.90 in 10.0 mi East 5.8 mph - N/A   Clear
3:31 PM 17.6 °F 8.2 °F 8.6 °F 68% 29.90 in 10.0 mi East 6.9 mph - N/A   Clear
3:51 PM 17.6 °F 9.3 °F 8.6 °F 68% 29.89 in 10.0 mi East 5.8 mph - N/A   Clear
4:11 PM 15.8 °F 10.2 °F 8.6 °F 73% 29.89 in 10.0 mi East 3.5 mph - N/A   Clear
4:36 PM 15.8 °F 10.2 °F 10.4 °F 79% 29.89 in 10.0 mi SE 3.5 mph - N/A   Mostly Cloudy
5:11 PM 15.8 °F 10.2 °F 8.6 °F 73% 29.87 in 10.0 mi ESE 3.5 mph - N/A   Clear
5:31 PM 12.2 °F - 6.8 °F 79% 29.87 in 10.0 mi Calm Calm - N/A   Clear
5:51 PM 10.4 °F - 8.6 °F 92% 29.88 in 10.0 mi Calm Calm - N/A   Mostly Cloudy
6:11 PM 12.2 °F - 8.6 °F 85% 29.88 in 7.0 mi Calm Calm - N/A   Overcast
6:31 PM 14.0 °F - 8.6 °F 79% 29.86 in 10.0 mi Calm Calm - N/A   Overcast
6:52 PM 10.4 °F - 6.8 °F 85% 29.88 in 7.0 mi Calm Calm - N/A   Scattered Clouds
7:11 PM 8.6 °F - 6.8 °F 92% 29.87 in 7.0 mi Calm Calm - N/A   Clear
7:31 PM 8.6 °F - 5.0 °F 85% 29.87 in 7.0 mi Calm Calm - N/A   Clear
7:51 PM 6.8 °F - 3.2 °F 85% 29.87 in 5.0 mi Calm Calm - N/A   Clear
8:11 PM 5.0 °F -2.1 °F 1.4 °F 85% 29.87 in 5.0 mi WNW 3.5 mph - N/A   Clear
8:32 PM 3.2 °F - 1.4 °F 92% 29.87 in 5.0 mi Calm Calm - N/A   Clear
8:51 PM 3.2 °F -4.2 °F -0.4 °F 85% 29.88 in 5.0 mi West 3.5 mph - N/A   Clear
9:11 PM 3.2 °F -4.2 °F -0.4 °F 85% 29.88 in 5.0 mi WNW 3.5 mph - N/A   Clear
9:32 PM 1.4 °F -6.2 °F -0.4 °F 92% 29.88 in 5.0 mi WNW 3.5 mph - N/A   Clear
9:51 PM 5.0 °F -4.1 °F 1.4 °F 85% 29.89 in 5.0 mi WNW 4.6 mph - N/A   Clear
10:11 PM 6.8 °F - 1.4 °F 79% 29.89 in 7.0 mi Calm Calm - N/A   Clear
10:32 PM 6.8 °F -3.5 °F 3.2 °F 85% 29.90 in 7.0 mi West 5.8 mph - N/A   Clear
10:51 PM 8.6 °F 0.1 °F 6.8 °F 92% 29.91 in 10.0 mi West 4.6 mph - N/A   Clear
11:11 PM 12.2 °F 0.7 °F 8.6 °F 85% 29.92 in 10.0 mi WNW 8.1 mph - N/A   Mostly Cloudy
11:32 PM 12.2 °F 2.9 °F 8.6 °F 85% 29.93 in 10.0 mi West 5.8 mph - N/A   Scattered Clouds
11:51 PM 12.2 °F -1.0 °F 8.6 °F 85% 29.94 in 10.0 mi West 10.4 mph - N/A   Clear